Big Bear Station Historical Data
Daily Summary for January 15, 2017 Units:  English    Metric   Both
Next Day »
Daily Weekly Monthly Yearly Custom
  High: Low: Average:
Temperature: 40.1 °F 20.3 °F 29 °F
Dew Point: 31.2 °F 19.3 °F 26.3 °F
Humidity: 99% 61% 90%
Wind Speed: 2.7mph 0.0mph 0.3mph
Wind Gust: -999.0mph - -
Wind- - SSW
Pressure: 23.45 in 23.40 in -
Precipitation: 0.13 in    
Historical Graphs
 
 
Tabular Data for January 15, 2017
Time Temperature Dew Point Pressure Wind Wind Speed Wind Gust Humidity Rainfall Rate (Hourly)
00:04 29.8 °F 29.3 °F 23.41 in Calm   -999.0 mph 98% 0 in
00:19 29.7 °F 29.2 °F 23.41 in Calm   -999.0 mph 98% 0 in
00:34 29.7 °F 29.2 °F 23.41 in ESE 1.7 mph -999.0 mph 98% 0 in
00:50 29.7 °F 29.2 °F 23.41 in Calm   -999.0 mph 98% 0 in
01:05 29.1 °F 28.6 °F 23.40 in Calm   -999.0 mph 98% 0 in
01:21 28.9 °F 28.4 °F 23.41 in Calm   -999.0 mph 98% 0 in
01:36 28.6 °F 28.1 °F 23.41 in Calm   -999.0 mph 98% 0 in
01:51 28.2 °F 28.0 °F 23.42 in Calm   -999.0 mph 99% 0 in
02:06 28.2 °F 28.0 °F 23.41 in Calm   -999.0 mph 99% 0 in
02:22 28.0 °F 27.8 °F 23.41 in ESE 1.7 mph -999.0 mph 99% 0 in
02:37 27.5 °F 27.3 °F 23.41 in Calm   -999.0 mph 99% 0 in
02:52 27.3 °F 27.1 °F 23.41 in Calm   -999.0 mph 99% 0 in
03:07 27.1 °F 26.9 °F 23.41 in Calm   -999.0 mph 99% 0 in
03:22 27.0 °F 26.8 °F 23.41 in Calm   -999.0 mph 99% 0 in
03:38 26.8 °F 26.6 °F 23.41 in SE 1.7 mph -999.0 mph 99% 0 in
03:53 26.4 °F 26.2 °F 23.40 in South 1.1 mph -999.0 mph 99% 0 in
04:08 26.1 °F 25.9 °F 23.40 in Calm   -999.0 mph 99% 0 in
04:23 25.7 °F 25.5 °F 23.40 in Calm   -999.0 mph 99% 0 in
04:38 25.3 °F 25.1 °F 23.40 in Calm   -999.0 mph 99% 0 in
04:54 25.0 °F 24.8 °F 23.40 in Calm   -999.0 mph 99% 0 in
05:09 24.8 °F 24.6 °F 23.40 in Calm   -999.0 mph 99% 0 in
05:24 24.4 °F 24.2 °F 23.40 in Calm   -999.0 mph 99% 0 in
05:39 23.9 °F 23.7 °F 23.40 in Calm   -999.0 mph 99% 0 in
05:54 23.5 °F 23.3 °F 23.41 in Calm   -999.0 mph 99% 0 in
06:10 23.2 °F 23.0 °F 23.40 in Calm   -999.0 mph 99% 0 in
06:25 23.5 °F 23.3 °F 23.41 in Calm   -999.0 mph 99% 0 in
06:40 23.2 °F 23.0 °F 23.41 in Calm   -999.0 mph 99% 0 in
06:55 22.8 °F 22.6 °F 23.41 in Calm   -999.0 mph 99% 0 in
07:10 22.5 °F 22.3 °F 23.42 in Calm   -999.0 mph 99% 0 in
07:26 22.5 °F 22.3 °F 23.42 in Calm   -999.0 mph 99% 0 in
07:41 22.6 °F 22.1 °F 23.42 in Calm   -999.0 mph 98% 0 in
07:56 22.6 °F 22.1 °F 23.42 in Calm   -999.0 mph 98% 0 in
08:11 23.0 °F 22.5 °F 23.42 in Calm   -999.0 mph 98% 0 in
08:27 23.7 °F 23.2 °F 23.43 in Calm   -999.0 mph 98% 0 in
08:42 24.3 °F 23.8 °F 23.43 in Calm   -999.0 mph 98% 0 in
08:57 25.2 °F 25.0 °F 23.43 in Calm   -999.0 mph 99% 0 in
09:12 26.4 °F 26.2 °F 23.44 in Calm   -999.0 mph 99% 0 in
09:27 27.3 °F 27.1 °F 23.44 in Calm   -999.0 mph 99% 0 in
09:43 30.2 °F 30.0 °F 23.44 in Calm   -999.0 mph 99% 0 in
09:58 30.9 °F 30.7 °F 23.44 in Calm   -999.0 mph 99% 0 in
10:13 32.0 °F 31.0 °F 23.44 in Calm   -999.0 mph 96% 0 in
10:28 33.3 °F 31.2 °F 23.44 in Calm   -999.0 mph 92% 0 in
10:43 35.8 °F 30.5 °F 23.44 in Calm   -999.0 mph 81% 0 in
10:59 36.0 °F 30.7 °F 23.44 in Calm   -999.0 mph 81% 0 in
11:14 37.0 °F 30.5 °F 23.43 in Calm   -999.0 mph 77% 0 in
11:29 38.1 °F 29.9 °F 23.43 in Calm   -999.0 mph 72% 0 in
11:44 39.0 °F 29.7 °F 23.42 in Calm   -999.0 mph 69% 0 in
11:59 38.3 °F 30.1 °F 23.42 in Calm   -999.0 mph 72% 0 in
12:15 39.0 °F 27.9 °F 23.41 in ESE 1.7 mph -999.0 mph 64% 0 in
12:30 40.1 °F 27.7 °F 23.41 in WNW 1.7 mph -999.0 mph 61% 0 in
12:45 39.6 °F 28.0 °F 23.41 in Calm   -999.0 mph 63% 0 in
13:00 39.9 °F 27.5 °F 23.40 in NW 2.7 mph -999.0 mph 61% 0 in
13:15 39.9 °F 29.5 °F 23.40 in NNE 1.7 mph -999.0 mph 66% 0 in
13:31 39.9 °F 30.2 °F 23.40 in NW 2.2 mph -999.0 mph 68% 0 in
13:46 39.4 °F 28.6 °F 23.40 in NW 2.2 mph -999.0 mph 65% 0 in
14:02 38.8 °F 29.5 °F 23.40 in Calm   -999.0 mph 69% 0 in
14:17 39.4 °F 30.1 °F 23.40 in Calm   -999.0 mph 69% 0 in
14:32 39.0 °F 27.5 °F 23.40 in Calm   -999.0 mph 63% 0 in
14:47 38.7 °F 28.3 °F 23.40 in Calm   -999.0 mph 66% 0 in
15:03 38.1 °F 27.4 °F 23.40 in Calm   -999.0 mph 65% 0 in
15:18 37.2 °F 26.5 °F 23.40 in WNW 1.7 mph -999.0 mph 65% 0 in
15:33 36.9 °F 28.0 °F 23.41 in WNW 2.2 mph -999.0 mph 70% 0 in
15:49 36.1 °F 28.3 °F 23.40 in WNW 1.1 mph -999.0 mph 73% 0 in
16:04 35.4 °F 27.6 °F 23.40 in Calm   -999.0 mph 73% 0 in
16:19 34.7 °F 29.8 °F 23.40 in South 1.7 mph -999.0 mph 82% 0 in
16:34 33.4 °F 29.4 °F 23.40 in SSW 2.2 mph -999.0 mph 85% 0 in
16:50 32.5 °F 28.5 °F 23.40 in South 2.2 mph -999.0 mph 85% 0 in
17:05 31.5 °F 28.4 °F 23.40 in Calm   -999.0 mph 88% 0 in
17:20 30.7 °F 27.8 °F 23.41 in Calm   -999.0 mph 89% 0 in
17:35 29.7 °F 27.4 °F 23.41 in Calm   -999.0 mph 91% 0 in
17:50 28.9 °F 26.9 °F 23.41 in Calm   -999.0 mph 92% 0 in
18:06 28.6 °F 27.1 °F 23.42 in Calm   -999.0 mph 94% 0 in
18:21 27.9 °F 26.4 °F 23.42 in Calm   -999.0 mph 94% 0 in
18:37 27.9 °F 26.9 °F 23.42 in Calm   -999.0 mph 96% 0 in
18:52 27.1 °F 26.4 °F 23.42 in Calm   -999.0 mph 97% 0 in
19:07 27.0 °F 26.3 °F 23.43 in Calm   -999.0 mph 97% 0 in
19:22 26.4 °F 25.7 °F 23.43 in Calm   -999.0 mph 97% 0 in
19:38 26.4 °F 25.9 °F 23.43 in Calm   -999.0 mph 98% 0 in
19:53 26.1 °F 25.6 °F 23.43 in Calm   -999.0 mph 98% 0 in
20:08 25.7 °F 25.2 °F 23.43 in Calm   -999.0 mph 98% 0 in
20:23 25.3 °F 24.8 °F 23.43 in Calm   -999.0 mph 98% 0 in
20:38 25.2 °F 24.7 °F 23.43 in Calm   -999.0 mph 98% 0 in
20:54 24.6 °F 24.1 °F 23.44 in Calm   -999.0 mph 98% 0 in
21:09 24.6 °F 24.1 °F 23.44 in Calm   -999.0 mph 98% 0 in
21:24 24.1 °F 23.6 °F 23.44 in Calm   -999.0 mph 98% 0 in
21:39 23.5 °F 23.0 °F 23.44 in Calm   -999.0 mph 98% 0 in
21:54 23.2 °F 22.7 °F 23.45 in Calm   -999.0 mph 98% 0 in
22:10 23.0 °F 22.5 °F 23.45 in Calm   -999.0 mph 98% 0 in
22:25 22.5 °F 21.8 °F 23.44 in Calm   -999.0 mph 97% 0 in
22:40 22.3 °F 21.6 °F 23.45 in Calm   -999.0 mph 97% 0 in
22:55 21.9 °F 21.2 °F 23.44 in Calm   -999.0 mph 97% 0 in
23:10 21.4 °F 20.4 °F 23.44 in Calm   -999.0 mph 96% 0 in
23:26 21.0 °F 20.0 °F 23.44 in Calm   -999.0 mph 96% 0 in
23:41 20.5 °F 19.5 °F 23.43 in Calm   -999.0 mph 96% 0 in
23:56 20.3 °F 19.3 °F 23.43 in Calm   -999.0 mph 96% 0 in
Big Bear CA Weather